カタログに戻る

ASTRA 2B

運用中通信GEO
NORAD 26494·PAYLOAD·🇱🇺 Luxembourg

打ち上げ Sep 14, 2000 から Guiana Space Centre

Loading…

TLE

最新Source: Space-Track

元期: Sep 14, 2026, 06:49 UTC

1 26494U 00054A   26257.28461102 -.00000244  00000-0  00000-0 0  9991
2 26494   9.7902  55.2076 0016480 162.7549 210.9644  0.98918862 47527

AllMySatでASTRA 2Bをリアルタイム追跡

Download on the App Store